Flag for Germany Weather past 2 weeks in Lüneburg, Lower Saxony, Germany

Now
36 °F

Partly sunny.


Feels Like: 31 °F
Forecast: 35 / 48 °F
Wind: 6 mph from Northwest

Location: Fassberg

Current Time: Apr 2, 2015 at 9:14:37 AM

Latest Report: Apr 2, 2015 at 8:20 AM


Visibility: 6 mi

Pressure: 29.68 "Hg

Humidity: 93%

Dew point: 34 °F

Location of LüneburgLocation

Historic Weather in Lüneburg — Graph

°F

Lüneburg temperature yesterday

Maximum temperature yesterday: 43 °F (at 12:20 PM)
Minimum temperature yesterday: 36 °F (at 1:20 AM)
Average temperature yesterday: 38 °F

Past Weeks' High & Low Weather Summary

 TemperatureHumidityPressure
High59 °F (Mar 18, 1:20 PM)100% (Mar 21, 5:20 AM)30.42 "Hg (Mar 21, 5:20 AM)
Low23 °F (Mar 20, 5:20 AM)29% (Mar 19, 3:20 PM)29.00 "Hg (Mar 29, 9:58 PM)
Average41 °F78%29.84 "Hg
* Reported Mar 18 6:20 AM — Apr 2 7:20 AM, Lüneburg, Weather by CustomWeather, © 2015

Note: Actual official high and low records may vary slightly from our data, if they occured in-between our weather recording intervals... More about our weather records

Advertising

Lüneburg weather history for previous 24 hours

 ConditionsComfort  
Time TempWeatherWind HumidityBarometerVisibility
7:20 AM
Thu, Apr 2
34 °FPartly cloudy.7 mph93%29.68 "HgN/A
6:46 AM34 °FSprinkles. Partly cloudy.12 mph93%29.68 "Hg5 mi
6:20 AM34 °FSnow showers. Passing clouds.7 mph93%29.68 "Hg2 mi
5:48 AM34 °FSprinkles. Partly cloudy.9 mph93%29.68 "Hg3 mi
5:20 AM36 °FRain showers. Passing clouds.10 mph93%29.68 "Hg4 mi
4:20 AM34 °FPassing clouds.12 mph100%29.68 "HgN/A
3:20 AM34 °FPassing clouds.8 mph93%29.71 "HgN/A
2:50 AM34 °FPassing clouds.10 mph93%29.74 "HgN/A
2:20 AM34 °FSnow flurries. Passing clouds.10 mph93%29.74 "Hg4 mi
1:20 AM34 °FSnow flurries. Passing clouds.9 mph93%29.80 "Hg4 mi
12:20 AM34 °FSnow flurries. Passing clouds.10 mph93%29.83 "Hg4 mi
11:20 PM
Wed, Apr 1
36 °FPartly cloudy.12 mph87%29.86 "HgN/A
10:20 PM36 °FSprinkles. Partly cloudy.13 mph87%29.86 "Hg6 mi
9:20 PM36 °FPartly cloudy.10 mph87%29.89 "HgN/A
8:20 PM37 °FBroken clouds.12 mph75%29.89 "HgN/A
7:20 PM39 °FBroken clouds.13 mph70%29.86 "HgN/A
6:20 PM39 °FPartly sunny.15 mph70%29.86 "HgN/A
5:20 PM43 °FPartly sunny.22 mph53%29.83 "HgN/A
4:20 PM43 °FScattered clouds.16 mph66%29.83 "HgN/A
3:20 PM41 °FScattered clouds.21 mph66%29.83 "HgN/A
2:20 PM41 °FSprinkles. Broken clouds.21 mph70%29.83 "Hg5 mi
1:20 PM43 °FBroken clouds.26 mph61%29.77 "HgN/A
12:20 PM43 °FScattered clouds.24 mph76%29.77 "HgN/A
11:59 AM41 °FSprinkles. Partly sunny.29 mph76%29.77 "Hg5 mi
11:54 AM41 °FSprinkles. Scattered clouds.29 mph76%29.77 "Hg6 mi
11:20 AM39 °FScattered clouds.16 mph81%29.77 "HgN/A
10:20 AM39 °FThunderstorms. Partly sunny.23 mph81%29.74 "Hg4 mi
9:20 AM37 °FPartly sunny.14 mph93%29.71 "HgN/A
Weather by CustomWeather, © 2015

See weather overviewHow to use our weather pages